Year,Month,Day,Hour,Minute,Value (Times are PST for temperature in C)
2018,08,07,00,00,20.80
2018,08,07,00,01,20.70
2018,08,07,00,02,20.70
2018,08,07,00,03,20.70
2018,08,07,00,04,20.70
2018,08,07,00,05,20.70
2018,08,07,00,06,20.80
2018,08,07,00,07,20.80
2018,08,07,00,08,20.80
2018,08,07,00,09,20.80
2018,08,07,00,10,20.80
2018,08,07,00,11,20.80
2018,08,07,00,12,20.80
2018,08,07,00,13,20.70
2018,08,07,00,14,20.70
2018,08,07,00,15,20.70
2018,08,07,00,16,20.80
2018,08,07,00,17,20.80
2018,08,07,00,18,20.80
2018,08,07,00,19,20.80
2018,08,07,00,20,20.80
2018,08,07,00,21,20.80
2018,08,07,00,22,20.80
2018,08,07,00,23,20.80
2018,08,07,00,24,20.80
2018,08,07,00,25,20.80
2018,08,07,00,26,20.80
2018,08,07,00,27,20.80
2018,08,07,00,28,20.80
2018,08,07,00,29,20.90
2018,08,07,00,30,20.90
2018,08,07,00,31,20.90
2018,08,07,00,32,20.90
2018,08,07,00,33,20.90
2018,08,07,00,34,20.90
2018,08,07,00,35,20.80
2018,08,07,00,36,20.80
2018,08,07,00,37,20.70
2018,08,07,00,38,20.70
2018,08,07,00,39,20.60
2018,08,07,00,40,20.60
2018,08,07,00,41,20.60
2018,08,07,00,42,20.50
2018,08,07,00,43,20.50
2018,08,07,00,44,20.40
2018,08,07,00,45,20.40
2018,08,07,00,46,20.40
2018,08,07,00,47,20.30
2018,08,07,00,48,20.30
2018,08,07,00,49,20.30
2018,08,07,00,50,20.30
2018,08,07,00,51,20.30
2018,08,07,00,52,20.30
2018,08,07,00,53,20.30
2018,08,07,00,54,20.30
2018,08,07,00,55,20.30
2018,08,07,00,56,20.20
2018,08,07,00,57,20.20
2018,08,07,00,58,20.10
2018,08,07,00,59,20.10
2018,08,07,01,00,20.10
2018,08,07,01,01,20.00
2018,08,07,01,02,20.00
2018,08,07,01,03,19.90
2018,08,07,01,04,19.90
2018,08,07,01,05,19.80
2018,08,07,01,06,19.80
2018,08,07,01,07,19.80
2018,08,07,01,08,19.80
2018,08,07,01,09,19.80
2018,08,07,01,10,19.70
2018,08,07,01,11,19.70
2018,08,07,01,12,19.70
2018,08,07,01,13,19.70
2018,08,07,01,14,19.60
2018,08,07,01,15,19.60
2018,08,07,01,16,19.60
2018,08,07,01,17,19.60
2018,08,07,01,18,19.60
2018,08,07,01,19,19.60
2018,08,07,01,20,19.60
2018,08,07,01,21,19.60
2018,08,07,01,22,19.50
2018,08,07,01,23,19.50
2018,08,07,01,24,19.40
2018,08,07,01,25,19.40
2018,08,07,01,26,19.40
2018,08,07,01,27,19.40
2018,08,07,01,28,19.30
2018,08,07,01,29,19.30
2018,08,07,01,30,19.30
2018,08,07,01,31,19.20
2018,08,07,01,32,19.20
2018,08,07,01,33,19.20
2018,08,07,01,34,19.20
2018,08,07,01,35,19.20
2018,08,07,01,36,19.20
2018,08,07,01,37,19.20
2018,08,07,01,38,19.20
2018,08,07,01,39,19.20
2018,08,07,01,40,19.10
2018,08,07,01,41,19.10
2018,08,07,01,42,19.10
2018,08,07,01,43,19.00
2018,08,07,01,44,18.90
2018,08,07,01,45,18.90
2018,08,07,01,46,18.80
2018,08,07,01,47,18.80
2018,08,07,01,48,18.80
2018,08,07,01,49,18.80
2018,08,07,01,50,18.70
2018,08,07,01,51,18.70
2018,08,07,01,52,18.80
2018,08,07,01,53,18.80
2018,08,07,01,54,18.80
2018,08,07,01,55,18.80
2018,08,07,01,56,18.80
2018,08,07,01,57,18.80
2018,08,07,01,58,18.80
2018,08,07,01,59,18.80
2018,08,07,02,00,18.70
2018,08,07,02,01,18.70
2018,08,07,02,02,18.70
2018,08,07,02,03,18.70
2018,08,07,02,04,18.70
2018,08,07,02,05,18.70
2018,08,07,02,06,18.70
2018,08,07,02,07,18.70
2018,08,07,02,08,18.70
2018,08,07,02,09,18.70
2018,08,07,02,10,18.80
2018,08,07,02,11,18.80
2018,08,07,02,12,18.80
2018,08,07,02,13,18.90
2018,08,07,02,14,19.00
2018,08,07,02,15,19.10
2018,08,07,02,16,19.20
2018,08,07,02,17,19.30
2018,08,07,02,18,19.50
2018,08,07,02,19,19.60
2018,08,07,02,20,19.80
2018,08,07,02,21,20.00
2018,08,07,02,22,20.20
2018,08,07,02,23,20.40
2018,08,07,02,24,20.50
2018,08,07,02,25,20.70
2018,08,07,02,26,20.80
2018,08,07,02,27,20.90
2018,08,07,02,28,21.00
2018,08,07,02,29,21.00
2018,08,07,02,30,21.00
2018,08,07,02,31,21.00
2018,08,07,02,32,20.90
2018,08,07,02,33,20.80
2018,08,07,02,34,20.70
2018,08,07,02,35,20.70
2018,08,07,02,36,20.60
2018,08,07,02,37,20.50
2018,08,07,02,38,20.40
2018,08,07,02,39,20.40
2018,08,07,02,40,20.30
2018,08,07,02,41,20.30
2018,08,07,02,42,20.30
2018,08,07,02,43,20.20
2018,08,07,02,44,20.20
2018,08,07,02,45,20.10
2018,08,07,02,46,20.10
2018,08,07,02,47,20.00
2018,08,07,02,48,19.90
2018,08,07,02,49,19.70
2018,08,07,02,50,19.60
2018,08,07,02,51,19.40
2018,08,07,02,52,19.30
2018,08,07,02,53,19.20
2018,08,07,02,54,19.10
2018,08,07,02,55,19.00
2018,08,07,02,56,18.90
2018,08,07,02,57,18.80
2018,08,07,02,58,18.80
2018,08,07,02,59,18.80
2018,08,07,03,00,18.80
2018,08,07,03,01,18.80
2018,08,07,03,02,18.70
2018,08,07,03,03,18.70
2018,08,07,03,04,18.70
2018,08,07,03,05,18.70
2018,08,07,03,06,18.70
2018,08,07,03,07,18.70
2018,08,07,03,08,18.70
2018,08,07,03,09,18.70
2018,08,07,03,10,18.70
2018,08,07,03,11,18.60
2018,08,07,03,12,18.60
2018,08,07,03,13,18.50
2018,08,07,03,14,18.50
2018,08,07,03,15,18.40
2018,08,07,03,16,18.40
2018,08,07,03,17,18.30
2018,08,07,03,18,18.30
2018,08,07,03,19,18.30
2018,08,07,03,20,18.20
2018,08,07,03,21,18.20
2018,08,07,03,22,18.20
2018,08,07,03,23,18.20
2018,08,07,03,24,18.10
2018,08,07,03,25,18.10
2018,08,07,03,26,18.00
2018,08,07,03,27,18.00
2018,08,07,03,28,17.90
2018,08,07,03,29,17.90
2018,08,07,03,30,17.90
2018,08,07,03,31,17.80
2018,08,07,03,32,17.80
2018,08,07,03,33,17.80
2018,08,07,03,34,17.80
2018,08,07,03,35,17.80
2018,08,07,03,36,17.80
2018,08,07,03,37,17.80
2018,08,07,03,38,17.80
2018,08,07,03,39,17.90
2018,08,07,03,40,17.90
2018,08,07,03,41,17.90
2018,08,07,03,42,17.90
2018,08,07,03,43,18.00
2018,08,07,03,44,18.00
2018,08,07,03,45,18.00
2018,08,07,03,46,18.10
2018,08,07,03,47,18.20
2018,08,07,03,48,18.30
2018,08,07,03,49,18.30
2018,08,07,03,50,18.40
2018,08,07,03,51,18.50
2018,08,07,03,52,18.60
2018,08,07,03,53,18.70
2018,08,07,03,54,18.70
2018,08,07,03,55,18.80
2018,08,07,03,56,18.90
2018,08,07,03,57,18.90
2018,08,07,03,58,18.90
2018,08,07,03,59,18.90
2018,08,07,04,00,18.90
2018,08,07,04,01,18.90
2018,08,07,04,02,18.90
2018,08,07,04,03,18.90
2018,08,07,04,04,18.90
2018,08,07,04,05,18.90
2018,08,07,04,06,18.90
2018,08,07,04,07,18.90
2018,08,07,04,08,18.90
2018,08,07,04,09,19.00
2018,08,07,04,10,19.00
2018,08,07,04,11,19.10
2018,08,07,04,12,19.10
2018,08,07,04,13,19.00
2018,08,07,04,14,18.90
2018,08,07,04,15,18.80
2018,08,07,04,16,18.70
2018,08,07,04,17,18.60
2018,08,07,04,18,18.50
2018,08,07,04,19,18.40
2018,08,07,04,20,18.40
2018,08,07,04,21,18.30
2018,08,07,04,22,18.30
2018,08,07,04,23,18.30
2018,08,07,04,24,18.30
2018,08,07,04,25,18.30
2018,08,07,04,26,18.40
2018,08,07,04,27,18.40
2018,08,07,04,28,18.40
2018,08,07,04,29,18.40
2018,08,07,04,30,18.40
2018,08,07,04,31,18.40
2018,08,07,04,32,18.40
2018,08,07,04,33,18.40
2018,08,07,04,34,18.40
2018,08,07,04,35,18.30
2018,08,07,04,36,18.30
2018,08,07,04,37,18.30
2018,08,07,04,38,18.30
2018,08,07,04,39,18.30
2018,08,07,04,40,18.30
2018,08,07,04,41,18.30
2018,08,07,04,42,18.30
2018,08,07,04,43,18.20
2018,08,07,04,44,18.20
2018,08,07,04,45,18.20
2018,08,07,04,46,18.20
2018,08,07,04,47,18.20
2018,08,07,04,48,18.20
2018,08,07,04,49,18.20
2018,08,07,04,50,18.20
2018,08,07,04,51,18.20
2018,08,07,04,52,18.20
2018,08,07,04,53,18.20
2018,08,07,04,54,18.30
2018,08,07,04,55,18.30
2018,08,07,04,56,18.40
2018,08,07,04,57,18.40
2018,08,07,04,58,18.30
2018,08,07,04,59,18.30
2018,08,07,05,00,18.30
2018,08,07,05,01,18.30
2018,08,07,05,02,18.20
2018,08,07,05,03,18.30
2018,08,07,05,04,18.30
2018,08,07,05,05,18.30
2018,08,07,05,06,18.30
2018,08,07,05,07,18.20
2018,08,07,05,08,18.20
2018,08,07,05,09,18.10
2018,08,07,05,10,18.10
2018,08,07,05,11,18.20
2018,08,07,05,12,18.20
2018,08,07,05,13,18.20
2018,08,07,05,14,18.20
2018,08,07,05,15,18.20
2018,08,07,05,16,18.20
2018,08,07,05,17,18.30
2018,08,07,05,18,18.30
2018,08,07,05,19,18.30
2018,08,07,05,20,18.40
2018,08,07,05,21,18.40
2018,08,07,05,22,18.40
2018,08,07,05,23,18.40
2018,08,07,05,24,18.40
2018,08,07,05,25,18.30
2018,08,07,05,26,18.30
2018,08,07,05,27,18.20
2018,08,07,05,28,18.20
2018,08,07,05,29,18.20
2018,08,07,05,30,18.20
2018,08,07,05,31,18.10
2018,08,07,05,32,18.10
2018,08,07,05,33,18.10
2018,08,07,05,34,18.10
2018,08,07,05,35,18.10
2018,08,07,05,36,18.10
2018,08,07,05,37,18.10
2018,08,07,05,38,18.10
2018,08,07,05,39,18.10
2018,08,07,05,40,18.10
2018,08,07,05,41,18.10
2018,08,07,05,42,18.00
2018,08,07,05,43,18.00
2018,08,07,05,44,18.00
2018,08,07,05,45,18.00
2018,08,07,05,46,18.10
2018,08,07,05,47,18.10
2018,08,07,05,48,18.10
2018,08,07,05,49,18.10
2018,08,07,05,50,18.10
2018,08,07,05,51,18.10
2018,08,07,05,52,18.10
2018,08,07,05,53,18.10
2018,08,07,05,54,18.10
2018,08,07,05,55,18.00
2018,08,07,05,56,18.00
2018,08,07,05,57,18.00
2018,08,07,05,58,17.90
2018,08,07,05,59,17.90
2018,08,07,06,00,17.90
2018,08,07,06,01,17.90
2018,08,07,06,02,17.90
2018,08,07,06,03,17.90
2018,08,07,06,04,17.90
2018,08,07,06,05,17.90
2018,08,07,06,06,17.90
2018,08,07,06,07,17.80
2018,08,07,06,08,17.70
2018,08,07,06,09,17.70
2018,08,07,06,10,17.60
2018,08,07,06,11,17.60
2018,08,07,06,12,17.60
2018,08,07,06,13,17.50
2018,08,07,06,14,17.40
2018,08,07,06,15,17.40
2018,08,07,06,16,17.40
2018,08,07,06,17,17.40
2018,08,07,06,18,17.50
2018,08,07,06,19,17.50
2018,08,07,06,20,17.50
2018,08,07,06,21,17.60
2018,08,07,06,22,17.60
2018,08,07,06,23,17.70
2018,08,07,06,24,17.70
2018,08,07,06,25,17.70
2018,08,07,06,26,17.70
2018,08,07,06,27,17.70
2018,08,07,06,28,17.70
2018,08,07,06,29,17.70
2018,08,07,06,30,17.80
2018,08,07,06,31,17.80
2018,08,07,06,32,17.90
2018,08,07,06,33,18.00
2018,08,07,06,34,18.00
2018,08,07,06,35,18.10
2018,08,07,06,36,18.10
2018,08,07,06,37,18.10
2018,08,07,06,38,18.10
2018,08,07,06,39,18.10
2018,08,07,06,40,18.10
2018,08,07,06,41,18.10
2018,08,07,06,42,18.10
2018,08,07,06,43,18.10
2018,08,07,06,44,18.20
2018,08,07,06,45,18.10
2018,08,07,06,46,18.10
2018,08,07,06,47,18.10
2018,08,07,06,48,18.20
2018,08,07,06,49,18.20
2018,08,07,06,50,18.20
2018,08,07,06,51,18.20
2018,08,07,06,52,18.30
2018,08,07,06,53,18.30
2018,08,07,06,54,18.40
2018,08,07,06,55,18.40
2018,08,07,06,56,18.40
2018,08,07,06,57,18.40
2018,08,07,06,58,18.40
2018,08,07,06,59,18.40
2018,08,07,07,00,18.40
2018,08,07,07,01,18.70
2018,08,07,07,02,18.70
2018,08,07,07,03,18.80
2018,08,07,07,04,18.80
2018,08,07,07,05,18.80
2018,08,07,07,06,18.80
2018,08,07,07,07,18.80
2018,08,07,07,08,18.80
2018,08,07,07,09,18.90
2018,08,07,07,10,18.90
2018,08,07,07,11,18.90
2018,08,07,07,12,18.90
2018,08,07,07,13,19.00
2018,08,07,07,14,19.00
2018,08,07,07,15,19.00
2018,08,07,07,16,19.10
2018,08,07,07,17,19.10
2018,08,07,07,18,19.20
2018,08,07,07,19,19.20
2018,08,07,07,20,19.30
2018,08,07,07,21,19.40
2018,08,07,07,22,19.50
2018,08,07,07,23,19.60
2018,08,07,07,24,19.80
2018,08,07,07,25,19.90
2018,08,07,07,26,20.00
2018,08,07,07,27,20.10
2018,08,07,07,28,20.20
2018,08,07,07,29,20.30
2018,08,07,07,30,20.40
2018,08,07,07,31,20.50
2018,08,07,07,32,20.60
2018,08,07,07,33,20.70
2018,08,07,07,34,20.80
2018,08,07,07,35,20.80
2018,08,07,07,36,20.90
2018,08,07,07,37,21.00
2018,08,07,07,38,21.00
2018,08,07,07,39,21.10
2018,08,07,07,40,21.20
2018,08,07,07,41,21.30
2018,08,07,07,42,21.30
2018,08,07,07,43,21.40
2018,08,07,07,44,21.50
2018,08,07,07,45,21.60
2018,08,07,07,46,21.80
2018,08,07,07,47,21.90
2018,08,07,07,48,22.00
2018,08,07,07,49,22.10
2018,08,07,07,50,22.10
2018,08,07,07,51,22.10
2018,08,07,07,52,22.10
2018,08,07,07,53,22.10
2018,08,07,07,54,22.10
2018,08,07,07,55,22.00
2018,08,07,07,56,22.00
2018,08,07,07,57,21.90
2018,08,07,07,58,21.90
2018,08,07,07,59,21.80
2018,08,07,08,00,21.80
2018,08,07,08,01,21.80
2018,08,07,08,02,21.80
2018,08,07,08,03,21.80
2018,08,07,08,04,21.70
2018,08,07,08,05,21.80
2018,08,07,08,06,21.80
2018,08,07,08,07,21.80
2018,08,07,08,08,21.90
2018,08,07,08,09,21.90
2018,08,07,08,10,21.90
2018,08,07,08,11,21.90
2018,08,07,08,12,22.00
2018,08,07,08,13,22.00
2018,08,07,08,14,22.10
2018,08,07,08,15,22.10
2018,08,07,08,16,22.10
2018,08,07,08,17,22.10
2018,08,07,08,18,22.10
2018,08,07,08,19,22.10
2018,08,07,08,20,22.20
2018,08,07,08,21,22.20
2018,08,07,08,22,22.20
2018,08,07,08,23,22.30
2018,08,07,08,24,22.40
2018,08,07,08,25,22.50
2018,08,07,08,26,22.60
2018,08,07,08,27,22.80
2018,08,07,08,28,22.90
2018,08,07,08,29,22.90
2018,08,07,08,30,23.00
2018,08,07,08,31,23.00
2018,08,07,08,32,23.10
2018,08,07,08,33,23.20
2018,08,07,08,34,23.30
2018,08,07,08,35,23.40
2018,08,07,08,36,23.40
2018,08,07,08,37,23.50
2018,08,07,08,38,23.50
2018,08,07,08,39,23.50
2018,08,07,08,40,23.60
2018,08,07,08,41,23.60
2018,08,07,08,42,23.70
2018,08,07,08,43,23.80
2018,08,07,08,44,23.80
2018,08,07,08,45,23.80
2018,08,07,08,46,23.80
2018,08,07,08,47,23.90
2018,08,07,08,48,23.90
2018,08,07,08,49,23.90
2018,08,07,08,50,24.00
2018,08,07,08,51,24.00
2018,08,07,08,52,24.10
2018,08,07,08,53,24.10
2018,08,07,08,54,24.20
2018,08,07,08,55,24.20
2018,08,07,08,56,24.30
2018,08,07,08,57,24.30
2018,08,07,08,58,24.20
2018,08,07,08,59,24.00
2018,08,07,09,00,24.00
2018,08,07,09,01,23.90
2018,08,07,09,02,23.90
2018,08,07,09,03,24.00
2018,08,07,09,04,24.00
2018,08,07,09,05,24.10
2018,08,07,09,06,24.10
2018,08,07,09,07,24.20
2018,08,07,09,08,24.20
2018,08,07,09,09,24.20
2018,08,07,09,10,24.20
2018,08,07,09,11,24.20
2018,08,07,09,12,24.10
2018,08,07,09,13,24.10
2018,08,07,09,14,24.10
2018,08,07,09,15,24.10
2018,08,07,09,16,24.00
2018,08,07,09,17,23.90
2018,08,07,09,18,23.80
2018,08,07,09,19,23.80
2018,08,07,09,20,23.80
2018,08,07,09,21,23.80
2018,08,07,09,22,23.90
2018,08,07,09,23,24.00
2018,08,07,09,24,24.00
2018,08,07,09,25,24.10
2018,08,07,09,26,24.20
2018,08,07,09,27,24.30
2018,08,07,09,28,24.40
2018,08,07,09,29,24.40
2018,08,07,09,30,24.50
2018,08,07,09,31,24.60
2018,08,07,09,32,24.60
2018,08,07,09,33,24.70
2018,08,07,09,34,24.70
2018,08,07,09,35,24.80
2018,08,07,09,36,24.80
2018,08,07,09,37,24.80
2018,08,07,09,38,24.80
2018,08,07,09,39,24.80
2018,08,07,09,40,24.80
2018,08,07,09,41,24.80
2018,08,07,09,42,24.80
2018,08,07,09,43,24.80
2018,08,07,09,44,24.80
2018,08,07,09,45,24.90
2018,08,07,09,46,25.00
2018,08,07,09,47,25.00
2018,08,07,09,48,24.90
2018,08,07,09,49,24.80
2018,08,07,09,50,24.70
2018,08,07,09,51,24.70
2018,08,07,09,52,24.60
2018,08,07,09,53,24.50
2018,08,07,09,54,24.40
2018,08,07,09,55,24.30
2018,08,07,09,56,24.30
2018,08,07,09,57,24.40
2018,08,07,09,58,24.50
2018,08,07,09,59,24.50
2018,08,07,10,00,24.40
2018,08,07,10,01,24.40
2018,08,07,10,02,24.30
2018,08,07,10,03,24.30
2018,08,07,10,04,24.30
2018,08,07,10,05,24.30
2018,08,07,10,06,24.30
2018,08,07,10,07,24.30
2018,08,07,10,08,24.30
2018,08,07,10,09,24.30
2018,08,07,10,10,24.40
2018,08,07,10,11,24.30
2018,08,07,10,12,24.40
2018,08,07,10,13,24.40
2018,08,07,10,14,24.60
2018,08,07,10,15,24.70
2018,08,07,10,16,24.70
2018,08,07,10,17,24.80
2018,08,07,10,18,24.90
2018,08,07,10,19,25.00
2018,08,07,10,20,25.20
2018,08,07,10,21,25.30
2018,08,07,10,22,25.30
2018,08,07,10,23,25.30
2018,08,07,10,24,25.30
2018,08,07,10,25,25.20
2018,08,07,10,26,25.20
2018,08,07,10,27,25.00
2018,08,07,10,28,24.90
2018,08,07,10,29,24.70
2018,08,07,10,30,24.70
2018,08,07,10,31,24.60
2018,08,07,10,32,24.60
2018,08,07,10,33,24.70
2018,08,07,10,34,24.70
2018,08,07,10,35,24.70
2018,08,07,10,36,24.60
2018,08,07,10,37,24.50
2018,08,07,10,38,24.40
2018,08,07,10,39,24.30
2018,08,07,10,40,24.40
2018,08,07,10,41,24.40
2018,08,07,10,42,24.20
2018,08,07,10,43,24.20
2018,08,07,10,44,24.30
2018,08,07,10,45,24.40
2018,08,07,10,46,24.50
2018,08,07,10,47,24.60
2018,08,07,10,48,24.60
2018,08,07,10,49,24.60
2018,08,07,10,50,24.60
2018,08,07,10,51,24.50
2018,08,07,10,52,24.50
2018,08,07,10,53,24.50
2018,08,07,10,54,24.50
2018,08,07,10,55,24.70
2018,08,07,10,56,24.80
2018,08,07,10,57,24.90
2018,08,07,10,58,24.90
2018,08,07,10,59,24.90
2018,08,07,11,00,25.00
2018,08,07,11,01,25.20
2018,08,07,11,02,25.20
2018,08,07,11,03,25.20
2018,08,07,11,04,25.30
2018,08,07,11,05,25.30
2018,08,07,11,06,25.30
2018,08,07,11,07,25.30
2018,08,07,11,08,25.30
2018,08,07,11,09,25.20
2018,08,07,11,10,25.10
2018,08,07,11,11,25.00
2018,08,07,11,12,24.90
2018,08,07,11,13,24.80
2018,08,07,11,14,24.70
2018,08,07,11,15,24.60
2018,08,07,11,16,24.60
2018,08,07,11,17,24.60
2018,08,07,11,18,24.70
2018,08,07,11,19,24.80
2018,08,07,11,20,24.80
2018,08,07,11,21,24.90
2018,08,07,11,22,24.90
2018,08,07,11,23,24.90
2018,08,07,11,24,24.90
2018,08,07,11,25,24.80
2018,08,07,11,26,24.70
2018,08,07,11,27,24.70
2018,08,07,11,28,24.70
2018,08,07,11,29,24.70
2018,08,07,11,30,24.70
2018,08,07,11,31,24.70
2018,08,07,11,32,24.70
2018,08,07,11,33,24.70
2018,08,07,11,34,24.70
2018,08,07,11,35,24.70
2018,08,07,11,36,24.70
2018,08,07,11,37,24.70
2018,08,07,11,38,24.90
2018,08,07,11,39,25.00
2018,08,07,11,40,25.10
2018,08,07,11,41,25.10
2018,08,07,11,42,25.10
2018,08,07,11,43,25.20
2018,08,07,11,44,25.10
2018,08,07,11,45,25.20
2018,08,07,11,46,25.30
2018,08,07,11,47,25.30
2018,08,07,11,48,25.30
2018,08,07,11,49,25.40
2018,08,07,11,50,25.40
2018,08,07,11,51,25.30
2018,08,07,11,52,25.30
2018,08,07,11,53,25.20
2018,08,07,11,54,25.10
2018,08,07,11,55,25.20
2018,08,07,11,56,25.20
2018,08,07,11,57,25.30
2018,08,07,11,58,25.40
2018,08,07,11,59,25.40
2018,08,07,12,00,25.50
2018,08,07,12,01,25.60
2018,08,07,12,02,25.50
2018,08,07,12,03,25.60
2018,08,07,12,04,25.70
2018,08,07,12,05,25.70
2018,08,07,12,06,25.80
2018,08,07,12,07,25.70
2018,08,07,12,08,25.70
2018,08,07,12,09,25.70
2018,08,07,12,10,25.70
2018,08,07,12,11,25.70
2018,08,07,12,12,25.60
2018,08,07,12,13,25.60
2018,08,07,12,14,25.60
2018,08,07,12,15,25.70
2018,08,07,12,16,25.70
2018,08,07,12,17,25.70
2018,08,07,12,18,25.70
2018,08,07,12,19,25.70
2018,08,07,12,20,25.80
2018,08,07,12,21,25.70
2018,08,07,12,22,25.70
2018,08,07,12,23,25.80
2018,08,07,12,24,25.90
2018,08,07,12,25,25.90
2018,08,07,12,26,26.00
2018,08,07,12,27,26.00
2018,08,07,12,28,26.10
2018,08,07,12,29,26.10
2018,08,07,12,30,26.20
2018,08,07,12,31,26.30
2018,08,07,12,32,26.60
2018,08,07,12,33,26.70
2018,08,07,12,34,26.70
2018,08,07,12,35,26.80
2018,08,07,12,36,26.70
2018,08,07,12,37,26.50
2018,08,07,12,38,26.40
2018,08,07,12,39,26.30
2018,08,07,12,40,26.30
2018,08,07,12,41,26.30
2018,08,07,12,42,26.30
2018,08,07,12,43,26.30
2018,08,07,12,44,26.20
2018,08,07,12,45,26.20
2018,08,07,12,46,26.20
2018,08,07,12,47,26.20
2018,08,07,12,48,26.30
2018,08,07,12,49,26.40
2018,08,07,12,50,26.40
2018,08,07,12,51,26.50
2018,08,07,12,52,26.60
2018,08,07,12,53,26.70
2018,08,07,12,54,26.80
2018,08,07,12,55,26.80
2018,08,07,12,56,26.80
2018,08,07,12,57,26.80
2018,08,07,12,58,26.90
2018,08,07,12,59,27.00
2018,08,07,13,00,27.10
2018,08,07,13,01,27.20
2018,08,07,13,02,27.20
2018,08,07,13,03,27.30
2018,08,07,13,04,27.30
2018,08,07,13,05,27.40
2018,08,07,13,06,27.30
2018,08,07,13,07,27.30
2018,08,07,13,08,27.20
2018,08,07,13,09,27.10
2018,08,07,13,10,27.20
2018,08,07,13,11,27.30
2018,08,07,13,12,27.30
2018,08,07,13,13,27.40
2018,08,07,13,14,27.50
2018,08,07,13,15,27.60
2018,08,07,13,16,27.60
2018,08,07,13,17,27.70
2018,08,07,13,18,27.60
2018,08,07,13,19,27.70
2018,08,07,13,20,27.70
2018,08,07,13,21,27.60
2018,08,07,13,22,27.50
2018,08,07,13,23,27.40
2018,08,07,13,24,27.40
2018,08,07,13,25,27.50
2018,08,07,13,26,27.60
2018,08,07,13,27,27.70
2018,08,07,13,28,27.80
2018,08,07,13,29,27.90
2018,08,07,13,30,27.90
2018,08,07,13,31,27.90
2018,08,07,13,32,27.90
2018,08,07,13,33,27.90
2018,08,07,13,34,27.90
2018,08,07,13,35,28.10
2018,08,07,13,36,28.20
2018,08,07,13,37,28.30
2018,08,07,13,38,28.40
2018,08,07,13,39,28.30
2018,08,07,13,40,28.20
2018,08,07,13,41,28.20
2018,08,07,13,42,28.20
2018,08,07,13,43,28.20
2018,08,07,13,44,28.20
2018,08,07,13,45,28.30
2018,08,07,13,46,28.30
2018,08,07,13,47,28.30
2018,08,07,13,48,28.40
2018,08,07,13,49,28.40
2018,08,07,13,50,28.30
2018,08,07,13,51,28.30
2018,08,07,13,52,28.40
2018,08,07,13,53,28.40
2018,08,07,13,54,28.40
2018,08,07,13,55,28.40
2018,08,07,13,56,28.40
2018,08,07,13,57,28.40
2018,08,07,13,58,28.30
2018,08,07,13,59,28.10
2018,08,07,14,00,27.90
2018,08,07,14,01,27.80
2018,08,07,14,02,27.80
2018,08,07,14,03,27.70
2018,08,07,14,04,27.70
2018,08,07,14,05,27.70
2018,08,07,14,06,27.80
2018,08,07,14,07,27.90
2018,08,07,14,08,28.00
2018,08,07,14,09,28.10
2018,08,07,14,10,28.20
2018,08,07,14,11,28.20
2018,08,07,14,12,28.30
2018,08,07,14,13,28.40
2018,08,07,14,14,28.40
2018,08,07,14,15,28.50
2018,08,07,14,16,28.60
2018,08,07,14,17,28.70
2018,08,07,14,18,28.60
2018,08,07,14,19,28.60
2018,08,07,14,20,28.60
2018,08,07,14,21,28.60
2018,08,07,14,22,28.60
2018,08,07,14,23,28.60
2018,08,07,14,24,28.60
2018,08,07,14,25,28.70
2018,08,07,14,26,28.70
2018,08,07,14,27,28.70
2018,08,07,14,28,28.80
2018,08,07,14,29,29.00
2018,08,07,14,30,29.00
2018,08,07,14,31,28.90
2018,08,07,14,32,28.70
2018,08,07,14,33,28.60
2018,08,07,14,34,28.60
2018,08,07,14,35,28.50
2018,08,07,14,36,28.50
2018,08,07,14,37,28.50
2018,08,07,14,38,28.40
2018,08,07,14,39,28.50
2018,08,07,14,40,28.60
2018,08,07,14,41,28.60
2018,08,07,14,42,28.70
2018,08,07,14,43,28.70
2018,08,07,14,44,28.80
2018,08,07,14,45,28.80
2018,08,07,14,46,28.80
2018,08,07,14,47,28.90
2018,08,07,14,48,28.90
2018,08,07,14,49,28.90
2018,08,07,14,50,28.90
2018,08,07,14,51,28.90
2018,08,07,14,52,29.00
2018,08,07,14,53,29.10
2018,08,07,14,54,29.20
2018,08,07,14,55,29.30
2018,08,07,14,56,29.30
2018,08,07,14,57,29.30
2018,08,07,14,58,29.20
2018,08,07,14,59,29.20
2018,08,07,15,00,29.30
2018,08,07,15,01,29.30
2018,08,07,15,02,29.30
2018,08,07,15,03,29.20
2018,08,07,15,04,29.20
2018,08,07,15,05,29.20
2018,08,07,15,06,29.20
2018,08,07,15,07,29.30
2018,08,07,15,08,29.30
2018,08,07,15,09,29.30
2018,08,07,15,10,29.30
2018,08,07,15,11,29.30
2018,08,07,15,12,29.30
2018,08,07,15,13,29.20
2018,08,07,15,14,29.20
2018,08,07,15,15,29.20
2018,08,07,15,16,29.20
2018,08,07,15,17,29.30
2018,08,07,15,18,29.30
2018,08,07,15,19,29.30
2018,08,07,15,20,29.40
2018,08,07,15,21,29.40
2018,08,07,15,22,29.40
2018,08,07,15,23,29.30
2018,08,07,15,24,29.20
2018,08,07,15,25,29.10
2018,08,07,15,26,29.10
2018,08,07,15,27,29.00
2018,08,07,15,28,29.00
2018,08,07,15,29,29.00
2018,08,07,15,30,29.00
2018,08,07,15,31,29.10
2018,08,07,15,32,29.10
2018,08,07,15,33,29.20
2018,08,07,15,34,29.30
2018,08,07,15,35,29.30
2018,08,07,15,36,29.30
2018,08,07,15,37,29.30
2018,08,07,15,38,29.40
2018,08,07,15,39,29.40
2018,08,07,15,40,29.30
2018,08,07,15,41,29.30
2018,08,07,15,42,29.30
2018,08,07,15,43,29.50
2018,08,07,15,44,29.50
2018,08,07,15,45,29.50
2018,08,07,15,46,29.50
2018,08,07,15,47,29.40
2018,08,07,15,48,29.40
2018,08,07,15,49,29.40
2018,08,07,15,50,29.40
2018,08,07,15,51,29.30
2018,08,07,15,52,29.30
2018,08,07,15,53,29.30
2018,08,07,15,54,29.40
2018,08,07,15,55,29.50
2018,08,07,15,56,29.60
2018,08,07,15,57,29.60
2018,08,07,15,58,29.60
2018,08,07,15,59,29.70
2018,08,07,16,00,29.60
2018,08,07,16,01,29.60
2018,08,07,16,02,29.70
2018,08,07,16,03,29.70
2018,08,07,16,04,29.70
2018,08,07,16,05,29.70
2018,08,07,16,06,29.80
2018,08,07,16,07,29.80
2018,08,07,16,08,29.90
2018,08,07,16,09,30.00
2018,08,07,16,10,30.10
2018,08,07,16,11,30.20
2018,08,07,16,12,30.20
2018,08,07,16,13,30.40
2018,08,07,16,14,30.50
2018,08,07,16,15,30.60
2018,08,07,16,16,30.60
2018,08,07,16,17,30.50
2018,08,07,16,18,30.40
2018,08,07,16,19,30.40
2018,08,07,16,20,30.30
2018,08,07,16,21,30.30
2018,08,07,16,22,30.30
2018,08,07,16,23,30.30
2018,08,07,16,24,30.50
2018,08,07,16,25,30.60
2018,08,07,16,26,30.60
2018,08,07,16,27,30.70
2018,08,07,16,28,30.70
2018,08,07,16,29,30.60
2018,08,07,16,30,30.60
2018,08,07,16,31,30.50
2018,08,07,16,32,30.40
2018,08,07,16,33,30.30
2018,08,07,16,34,30.30
2018,08,07,16,35,30.30
2018,08,07,16,36,30.40
2018,08,07,16,37,30.40
2018,08,07,16,38,30.50
2018,08,07,16,39,30.50
2018,08,07,16,40,30.40
2018,08,07,16,41,30.40
2018,08,07,16,42,30.50
2018,08,07,16,43,30.50
2018,08,07,16,44,30.60
2018,08,07,16,45,30.60
2018,08,07,16,46,30.70
2018,08,07,16,47,30.70
2018,08,07,16,48,30.80
2018,08,07,16,49,30.80
2018,08,07,16,50,30.80
2018,08,07,16,51,30.90
2018,08,07,16,52,31.00
2018,08,07,16,53,31.10
2018,08,07,16,54,31.20
2018,08,07,16,55,31.30
2018,08,07,16,56,31.40
2018,08,07,16,57,31.40
2018,08,07,16,58,31.50
2018,08,07,16,59,31.50
2018,08,07,17,00,31.60
2018,08,07,17,01,31.60
2018,08,07,17,02,31.60
2018,08,07,17,03,31.60
2018,08,07,17,04,31.50
2018,08,07,17,05,31.40
2018,08,07,17,06,31.40
2018,08,07,17,07,31.30
2018,08,07,17,08,31.30
2018,08,07,17,09,31.30
2018,08,07,17,10,31.40
2018,08,07,17,11,31.50
2018,08,07,17,12,31.60
2018,08,07,17,13,31.60
2018,08,07,17,14,31.70
2018,08,07,17,15,31.70
2018,08,07,17,16,31.70
2018,08,07,17,17,31.70
2018,08,07,17,18,31.70
2018,08,07,17,19,31.80